Time,TemperatureF,DewpointF,PressureIn,WindDirection,WindDirectionDegrees,WindSpeedMPH,WindSpeedGustMPH,Humidity,HourlyPrecipIn,Conditions,Clouds,dailyrainin,SoftwareType,DateUTC
2013-07-30 00:04:00,67.8,66.9,29.98,WNW,292,0.0,1.0,97,0.00,,,-99.99,WeatherLink 5.7,2013-07-30 04:04:00,
2013-07-30 00:09:00,67.8,66.9,29.98,North,-999,0.0,0.0,97,0.00,,,-99.99,WeatherLink 5.7,2013-07-30 04:09:00,
2013-07-30 00:14:00,67.6,66.7,29.98,North,-999,0.0,0.0,97,0.00,,,-99.99,WeatherLink 5.7,2013-07-30 04:14:00,
2013-07-30 00:24:00,67.3,66.4,29.98,North,-999,0.0,0.0,97,0.00,,,-99.99,WeatherLink 5.7,2013-07-30 04:24:00,
2013-07-30 00:34:00,66.9,66.0,29.98,North,-999,0.0,0.0,97,0.00,,,-99.99,WeatherLink 5.7,2013-07-30 04:34:00,
2013-07-30 00:44:00,66.9,66.0,29.98,North,-999,0.0,0.0,97,0.00,,,-99.99,WeatherLink 5.7,2013-07-30 04:44:00,
2013-07-30 00:49:00,66.9,66.0,29.99,North,-999,0.0,0.0,97,0.00,,,-99.99,WeatherLink 5.7,2013-07-30 04:49:00,
2013-07-30 00:59:00,66.6,65.7,29.99,North,-999,0.0,0.0,97,0.00,,,-99.99,WeatherLink 5.7,2013-07-30 04:59:00,
2013-07-30 01:04:00,66.6,65.7,29.99,North,-999,0.0,0.0,97,0.00,,,-99.99,WeatherLink 5.7,2013-07-30 05:04:00,
2013-07-30 01:09:00,66.6,65.7,29.99,North,-999,0.0,0.0,97,0.00,,,-99.99,WeatherLink 5.7,2013-07-30 05:09:00,
2013-07-30 01:14:00,66.4,65.5,29.99,North,-999,0.0,0.0,97,0.00,,,-99.99,WeatherLink 5.7,2013-07-30 05:14:00,
2013-07-30 01:24:00,66.8,65.9,29.99,North,-999,0.0,0.0,97,0.00,,,-99.99,WeatherLink 5.7,2013-07-30 05:24:00,
2013-07-30 01:34:00,66.9,66.0,29.98,North,-999,0.0,0.0,97,0.00,,,-99.99,WeatherLink 5.7,2013-07-30 05:34:00,
2013-07-30 01:44:00,66.8,65.9,29.98,North,-999,0.0,0.0,97,0.00,,,-99.99,WeatherLink 5.7,2013-07-30 05:44:00,
2013-07-30 01:54:00,66.6,65.7,29.98,North,-999,0.0,0.0,97,0.00,,,-99.99,WeatherLink 5.7,2013-07-30 05:54:00,
2013-07-30 02:04:00,66.4,65.5,29.98,North,-999,0.0,0.0,97,0.00,,,-99.99,WeatherLink 5.7,2013-07-30 06:04:00,
2013-07-30 02:14:00,66.1,65.2,29.98,North,-999,0.0,0.0,97,0.00,,,-99.99,WeatherLink 5.7,2013-07-30 06:14:00,
2013-07-30 02:24:00,65.8,64.9,29.98,North,-999,0.0,0.0,97,0.00,,,-99.99,WeatherLink 5.7,2013-07-30 06:24:00,
2013-07-30 02:34:00,65.0,64.1,29.98,North,-999,0.0,0.0,97,0.00,,,-99.99,WeatherLink 5.7,2013-07-30 06:34:00,
2013-07-30 02:44:00,64.2,63.3,29.98,North,-999,0.0,0.0,97,0.00,,,-99.99,WeatherLink 5.7,2013-07-30 06:44:00,
2013-07-30 02:54:00,63.4,62.5,29.98,North,-999,0.0,0.0,97,0.00,,,-99.99,WeatherLink 5.7,2013-07-30 06:54:00,
2013-07-30 03:04:00,62.9,62.0,29.98,North,-999,0.0,0.0,97,0.00,,,-99.99,WeatherLink 5.7,2013-07-30 07:04:00,
2013-07-30 03:14:00,62.4,61.5,29.98,North,-999,0.0,0.0,97,0.00,,,-99.99,WeatherLink 5.7,2013-07-30 07:14:00,
2013-07-30 03:19:00,62.1,61.2,29.98,North,-999,0.0,0.0,97,0.00,,,-99.99,WeatherLink 5.7,2013-07-30 07:19:00,
2013-07-30 03:24:00,62.0,61.1,29.98,North,-999,0.0,0.0,97,0.00,,,-99.99,WeatherLink 5.7,2013-07-30 07:24:00,
2013-07-30 03:34:00,61.5,60.6,29.99,North,-999,0.0,0.0,97,0.00,,,-99.99,WeatherLink 5.7,2013-07-30 07:34:00,
2013-07-30 03:39:00,61.5,60.6,29.99,North,-999,0.0,0.0,97,0.00,,,-99.99,WeatherLink 5.7,2013-07-30 07:39:00,
2013-07-30 03:49:00,61.3,60.4,29.99,North,-999,0.0,0.0,97,0.00,,,-99.99,WeatherLink 5.7,2013-07-30 07:49:00,
2013-07-30 03:59:00,61.2,60.3,29.99,North,-999,0.0,0.0,97,0.00,,,-99.99,WeatherLink 5.7,2013-07-30 07:59:00,
2013-07-30 04:09:00,61.0,60.1,29.99,North,-999,0.0,0.0,97,0.00,,,-99.99,WeatherLink 5.7,2013-07-30 08:09:00,
2013-07-30 04:19:00,60.9,60.0,29.99,North,-999,0.0,0.0,97,0.00,,,-99.99,WeatherLink 5.7,2013-07-30 08:19:00,
2013-07-30 04:29:00,60.5,59.6,29.99,North,-999,0.0,0.0,97,0.00,,,-99.99,WeatherLink 5.7,2013-07-30 08:29:00,
2013-07-30 04:34:00,60.5,59.6,30.00,North,-999,0.0,0.0,97,0.00,,,-99.99,WeatherLink 5.7,2013-07-30 08:34:00,
2013-07-30 04:44:00,60.4,59.5,30.00,North,-999,0.0,0.0,97,0.00,,,-99.99,WeatherLink 5.7,2013-07-30 08:44:00,
2013-07-30 04:54:00,60.1,59.2,30.00,North,-999,0.0,0.0,97,0.00,,,-99.99,WeatherLink 5.7,2013-07-30 08:54:00,
2013-07-30 05:04:00,59.9,59.0,30.00,North,-999,0.0,0.0,97,0.00,,,-99.99,WeatherLink 5.7,2013-07-30 09:04:00,
2013-07-30 05:09:00,59.9,59.0,30.00,North,-999,0.0,0.0,97,0.00,,,-99.99,WeatherLink 5.7,2013-07-30 09:09:00,
2013-07-30 05:19:00,59.8,58.9,30.00,North,-999,0.0,0.0,97,0.00,,,-99.99,WeatherLink 5.7,2013-07-30 09:19:00,
2013-07-30 05:24:00,59.6,58.7,30.00,North,-999,0.0,0.0,97,0.00,,,-99.99,WeatherLink 5.7,2013-07-30 09:24:00,
2013-07-30 05:29:00,59.6,58.7,30.00,North,-999,0.0,0.0,97,0.00,,,-99.99,WeatherLink 5.7,2013-07-30 09:29:00,
2013-07-30 05:39:00,59.5,58.6,30.00,North,-999,0.0,0.0,97,0.00,,,-99.99,WeatherLink 5.7,2013-07-30 09:39:00,
2013-07-30 05:44:00,59.5,58.6,30.00,North,-999,0.0,0.0,97,0.00,,,-99.99,WeatherLink 5.7,2013-07-30 09:44:00,
2013-07-30 05:54:00,59.3,58.4,30.00,North,-999,0.0,0.0,97,0.00,,,-99.99,WeatherLink 5.7,2013-07-30 09:54:00,
2013-07-30 05:59:00,59.3,58.4,30.00,North,-999,0.0,0.0,97,0.01,,,-99.99,WeatherLink 5.7,2013-07-30 09:59:00,
2013-07-30 06:09:00,59.2,58.3,30.01,WNW,292,0.0,1.0,97,0.01,,,-99.99,WeatherLink 5.7,2013-07-30 10:09:00,
2013-07-30 06:19:00,59.0,58.2,30.01,WNW,292,0.0,2.0,97,0.01,,,-99.99,WeatherLink 5.7,2013-07-30 10:19:00,
2013-07-30 06:29:00,59.0,58.2,30.01,NNW,337,1.0,3.0,97,0.01,,,-99.99,WeatherLink 5.7,2013-07-30 10:29:00,
2013-07-30 06:34:00,59.0,58.2,30.01,NNW,337,0.0,1.0,97,0.01,,,-99.99,WeatherLink 5.7,2013-07-30 10:34:00,
2013-07-30 06:44:00,59.2,58.3,30.01,North,0,0.0,2.0,97,0.01,,,-99.99,WeatherLink 5.7,2013-07-30 10:44:00,
2013-07-30 06:54:00,59.3,58.2,30.01,North,0,0.0,1.0,96,0.01,,,-99.99,WeatherLink 5.7,2013-07-30 10:54:00,
2013-07-30 07:04:00,59.6,58.5,30.01,NNW,337,0.0,2.0,96,0.00,,,-99.99,WeatherLink 5.7,2013-07-30 11:04:00,
2013-07-30 07:14:00,59.9,58.8,30.01,West,270,0.0,1.0,96,0.00,,,-99.99,WeatherLink 5.7,2013-07-30 11:14:00,
2013-07-30 07:24:00,60.4,59.0,30.01,North,-999,0.0,0.0,95,0.00,,,-99.99,WeatherLink 5.7,2013-07-30 11:24:00,
2013-07-30 07:29:00,60.5,59.1,30.01,North,0,0.0,2.0,95,0.00,,,-99.99,WeatherLink 5.7,2013-07-30 11:29:00,
2013-07-30 07:39:00,61.0,59.3,30.01,North,0,0.0,1.0,94,0.00,,,-99.99,WeatherLink 5.7,2013-07-30 11:39:00,
2013-07-30 07:44:00,61.5,59.8,30.01,NW,315,0.0,2.0,94,0.00,,,-99.99,WeatherLink 5.7,2013-07-30 11:44:00,
2013-07-30 07:54:00,62.0,59.3,30.02,NW,315,0.0,1.0,91,0.00,,,-99.99,WeatherLink 5.7,2013-07-30 11:54:00,
2013-07-30 08:04:00,62.6,59.3,30.02,NNW,337,0.0,3.0,89,0.00,,,-99.99,WeatherLink 5.7,2013-07-30 12:04:00,
2013-07-30 08:14:00,63.2,59.3,30.02,North,0,0.0,2.0,87,0.00,,,-99.99,WeatherLink 5.7,2013-07-30 12:14:00,
2013-07-30 08:19:00,63.5,59.2,30.02,North,0,0.0,3.0,86,0.00,,,-99.99,WeatherLink 5.7,2013-07-30 12:19:00,
2013-07-30 08:29:00,64.2,59.3,30.02,North,0,1.0,5.0,84,0.00,,,-99.99,WeatherLink 5.7,2013-07-30 12:29:00,
2013-07-30 08:34:00,64.5,58.9,30.03,WNW,292,1.0,3.0,82,0.00,,,-99.99,WeatherLink 5.7,2013-07-30 12:34:00,
2013-07-30 08:44:00,65.2,60.2,30.03,North,-999,0.0,0.0,84,0.00,,,-99.99,WeatherLink 5.7,2013-07-30 12:44:00,
2013-07-30 08:49:00,65.3,60.0,30.03,North,0,0.0,3.0,83,0.00,,,-99.99,WeatherLink 5.7,2013-07-30 12:49:00,
2013-07-30 08:59:00,66.3,60.6,30.03,West,270,0.0,2.0,82,0.00,,,-99.99,WeatherLink 5.7,2013-07-30 12:59:00,
2013-07-30 09:09:00,68.1,60.6,30.03,NW,315,1.0,3.0,77,0.00,,,-99.99,WeatherLink 5.7,2013-07-30 13:09:00,
2013-07-30 09:19:00,70.3,60.4,30.03,West,270,2.0,6.0,71,0.00,,,-99.99,WeatherLink 5.7,2013-07-30 13:19:00,
2013-07-30 09:29:00,72.0,60.0,30.03,NNE,22,1.0,5.0,66,0.00,,,-99.99,WeatherLink 5.7,2013-07-30 13:29:00,
2013-07-30 09:39:00,73.7,59.9,30.03,North,0,1.0,3.0,62,0.00,,,-99.99,WeatherLink 5.7,2013-07-30 13:39:00,
2013-07-30 09:49:00,75.3,60.9,30.03,NNW,337,1.0,5.0,61,0.00,,,-99.99,WeatherLink 5.7,2013-07-30 13:49:00,
2013-07-30 09:59:00,76.7,58.8,30.03,West,270,1.0,4.0,54,0.00,,,-99.99,WeatherLink 5.7,2013-07-30 13:59:00,
2013-07-30 10:09:00,77.2,58.7,30.03,NNE,22,2.0,6.0,53,0.00,,,-99.99,WeatherLink 5.7,2013-07-30 14:09:00,
2013-07-30 10:14:00,77.7,58.7,30.03,WSW,247,2.0,7.0,52,0.00,,,-99.99,WeatherLink 5.7,2013-07-30 14:14:00,
2013-07-30 10:24:00,79.0,57.6,30.03,WNW,292,2.0,7.0,48,0.00,,,-99.99,WeatherLink 5.7,2013-07-30 14:24:00,
2013-07-30 10:29:00,79.8,59.5,30.03,NW,315,1.0,7.0,50,0.00,,,-99.99,WeatherLink 5.7,2013-07-30 14:29:00,
2013-07-30 10:39:00,80.5,57.8,30.03,North,0,2.0,8.0,46,0.00,,,-99.99,WeatherLink 5.7,2013-07-30 14:39:00,
2013-07-30 10:49:00,81.1,60.7,30.03,WNW,292,1.0,2.0,50,0.00,,,-99.99,WeatherLink 5.7,2013-07-30 14:49:00,
2013-07-30 10:59:00,81.2,58.5,30.03,West,270,2.0,4.0,46,0.00,,,-99.99,WeatherLink 5.7,2013-07-30 14:59:00,
2013-07-30 11:10:00,81.6,60.0,30.03,NNW,337,1.0,3.0,48,0.00,,,-99.99,WeatherLink 5.7,2013-07-30 15:10:00,
2013-07-30 11:19:00,81.2,59.1,30.03,West,270,2.0,7.0,47,0.00,,,-99.99,WeatherLink 5.7,2013-07-30 15:19:00,
2013-07-30 11:24:00,81.4,58.6,30.03,West,270,1.0,4.0,46,0.00,,,-99.99,WeatherLink 5.7,2013-07-30 15:24:00,
2013-07-30 11:34:00,81.2,59.6,30.02,North,0,1.0,3.0,48,0.00,,,-99.99,WeatherLink 5.7,2013-07-30 15:34:00,
2013-07-30 11:44:00,80.9,59.9,30.02,West,270,1.0,3.0,49,0.00,,,-99.99,WeatherLink 5.7,2013-07-30 15:44:00,
2013-07-30 11:49:00,81.4,61.0,30.02,West,270,1.0,2.0,50,0.00,,,-99.99,WeatherLink 5.7,2013-07-30 15:49:00,
2013-07-30 11:54:00,82.2,60.6,30.02,WSW,247,1.0,2.0,48,0.00,,,-99.99,WeatherLink 5.7,2013-07-30 15:54:00,
2013-07-30 12:04:00,83.2,60.3,30.02,West,270,1.0,3.0,46,0.00,,,-99.99,WeatherLink 5.7,2013-07-30 16:04:00,
2013-07-30 12:14:00,83.8,58.9,30.02,NNE,22,1.0,5.0,43,0.00,,,-99.99,WeatherLink 5.7,2013-07-30 16:14:00,
2013-07-30 12:24:00,84.0,57.8,30.01,WSW,247,2.0,5.0,41,0.00,,,-99.99,WeatherLink 5.7,2013-07-30 16:24:00,
2013-07-30 12:34:00,82.8,59.9,30.01,WNW,292,1.0,3.0,46,0.00,,,-99.99,WeatherLink 5.7,2013-07-30 16:34:00,
2013-07-30 12:39:00,82.4,59.5,30.01,NW,315,0.0,3.0,46,0.00,,,-99.99,WeatherLink 5.7,2013-07-30 16:39:00,
2013-07-30 12:49:00,82.4,61.9,30.01,NNW,337,0.0,2.0,50,0.00,,,-99.99,WeatherLink 5.7,2013-07-30 16:49:00,
2013-07-30 12:54:00,82.6,59.1,30.01,NNW,337,0.0,3.0,45,0.00,,,-99.99,WeatherLink 5.7,2013-07-30 16:54:00,
2013-07-30 13:04:00,83.8,57.6,30.01,NNW,337,1.0,2.0,41,0.00,,,-99.99,WeatherLink 5.7,2013-07-30 17:04:00,
2013-07-30 13:09:00,84.1,57.9,30.01,West,270,1.0,6.0,41,0.00,,,-99.99,WeatherLink 5.7,2013-07-30 17:09:00,
2013-07-30 13:20:00,84.3,60.0,30.00,NE,45,1.0,4.0,44,0.00,,,-99.99,WeatherLink 5.7,2013-07-30 17:20:00,
2013-07-30 13:29:00,83.8,59.6,30.00,South,180,1.0,5.0,44,0.00,,,-99.99,WeatherLink 5.7,2013-07-30 17:29:00,
2013-07-30 13:34:00,84.0,57.8,30.00,WNW,292,1.0,5.0,41,0.00,,,-99.99,WeatherLink 5.7,2013-07-30 17:34:00,
2013-07-30 13:44:00,84.5,59.5,30.00,West,270,1.0,4.0,43,0.00,,,-99.99,WeatherLink 5.7,2013-07-30 17:44:00,
2013-07-30 13:49:00,84.7,60.4,30.00,North,0,0.0,1.0,44,0.00,,,-99.99,WeatherLink 5.7,2013-07-30 17:49:00,
2013-07-30 13:59:00,84.5,58.9,30.00,NW,315,1.0,3.0,42,0.00,,,-99.99,WeatherLink 5.7,2013-07-30 17:59:00,
2013-07-30 14:09:00,84.9,56.5,30.00,WNW,292,1.0,3.0,38,0.00,,,-99.99,WeatherLink 5.7,2013-07-30 18:09:00,
2013-07-30 14:14:00,85.1,59.4,30.00,WNW,292,1.0,3.0,42,0.00,,,-99.99,WeatherLink 5.7,2013-07-30 18:14:00,
2013-07-30 14:19:00,85.3,57.5,30.00,WNW,292,2.0,5.0,39,0.00,,,-99.99,WeatherLink 5.7,2013-07-30 18:19:00,
2013-07-30 14:29:00,85.1,58.1,30.00,SW,225,2.0,4.0,40,0.00,,,-99.99,WeatherLink 5.7,2013-07-30 18:29:00,
2013-07-30 14:39:00,84.9,56.5,30.00,WSW,247,2.0,6.0,38,0.00,,,-99.99,WeatherLink 5.7,2013-07-30 18:39:00,
2013-07-30 14:49:00,83.2,58.4,30.00,North,0,1.0,3.0,43,0.00,,,-99.99,WeatherLink 5.7,2013-07-30 18:49:00,
2013-07-30 14:59:00,81.8,56.5,30.00,WSW,247,2.0,6.0,42,0.00,,,-99.99,WeatherLink 5.7,2013-07-30 18:59:00,
2013-07-30 15:09:00,82.6,56.5,29.99,North,0,2.0,5.0,41,0.00,,,-99.99,WeatherLink 5.7,2013-07-30 19:09:00,
2013-07-30 15:19:00,83.2,59.0,29.99,West,270,1.0,2.0,44,0.00,,,-99.99,WeatherLink 5.7,2013-07-30 19:19:00,
2013-07-30 15:29:00,83.2,57.7,29.99,West,270,2.0,7.0,42,0.00,,,-99.99,WeatherLink 5.7,2013-07-30 19:29:00,
2013-07-30 15:34:00,83.2,57.7,29.99,WNW,292,2.0,5.0,42,0.00,,,-99.99,WeatherLink 5.7,2013-07-30 19:34:00,
2013-07-30 15:44:00,83.2,55.7,29.99,WNW,292,2.0,7.0,39,0.00,,,-99.99,WeatherLink 5.7,2013-07-30 19:44:00,
2013-07-30 15:54:00,82.2,56.8,29.98,SSW,202,1.0,2.0,42,0.00,,,-99.99,WeatherLink 5.7,2013-07-30 19:54:00,
2013-07-30 16:04:00,83.0,60.1,29.98,NW,315,1.0,3.0,46,0.00,,,-99.99,WeatherLink 5.7,2013-07-30 20:04:00,
2013-07-30 16:14:00,83.2,57.7,29.98,NNE,22,1.0,5.0,42,0.00,,,-99.99,WeatherLink 5.7,2013-07-30 20:14:00,
2013-07-30 16:24:00,83.4,57.2,29.98,WSW,247,1.0,3.0,41,0.00,,,-99.99,WeatherLink 5.7,2013-07-30 20:24:00,
2013-07-30 16:29:00,83.2,55.0,29.98,WSW,247,1.0,3.0,38,0.00,,,-99.99,WeatherLink 5.7,2013-07-30 20:29:00,
2013-07-30 16:35:00,82.2,56.8,29.97,NW,315,2.0,6.0,42,0.00,,,-99.99,WeatherLink 5.7,2013-07-30 20:35:00,
2013-07-30 16:44:00,81.2,57.2,29.97,WNW,292,1.0,3.0,44,0.00,,,-99.99,WeatherLink 5.7,2013-07-30 20:44:00,
2013-07-30 16:49:00,80.9,58.2,29.98,North,0,0.0,3.0,46,0.00,,,-99.99,WeatherLink 5.7,2013-07-30 20:49:00,
2013-07-30 16:59:00,80.3,60.0,29.98,North,-999,0.0,0.0,50,0.00,,,-99.99,WeatherLink 5.7,2013-07-30 20:59:00,
2013-07-30 17:09:00,79.8,58.4,29.98,North,0,0.0,2.0,48,0.00,,,-99.99,WeatherLink 5.7,2013-07-30 21:09:00,
2013-07-30 17:19:00,80.1,58.6,29.98,North,0,1.0,3.0,48,0.00,,,-99.99,WeatherLink 5.7,2013-07-30 21:19:00,
2013-07-30 17:29:00,80.3,55.8,29.98,North,0,0.0,1.0,43,0.00,,,-99.99,WeatherLink 5.7,2013-07-30 21:29:00,
2013-07-30 17:39:00,80.3,57.6,29.98,North,-999,0.0,0.0,46,0.00,,,-99.99,WeatherLink 5.7,2013-07-30 21:39:00,
2013-07-30 17:49:00,79.9,59.0,29.98,North,0,0.0,1.0,49,0.00,,,-99.99,WeatherLink 5.7,2013-07-30 21:49:00,
2013-07-30 17:59:00,78.8,56.9,29.98,North,0,0.0,2.0,47,0.00,,,-99.99,WeatherLink 5.7,2013-07-30 21:59:00,
2013-07-30 18:09:00,78.1,58.5,29.98,North,-999,0.0,0.0,51,0.00,,,-99.99,WeatherLink 5.7,2013-07-30 22:09:00,
2013-07-30 18:19:00,77.7,59.2,29.98,North,-999,0.0,0.0,53,0.00,,,-99.99,WeatherLink 5.7,2013-07-30 22:19:00,
2013-07-30 18:29:00,77.2,58.7,29.98,North,-999,0.0,0.0,53,0.00,,,-99.99,WeatherLink 5.7,2013-07-30 22:29:00,
2013-07-30 18:39:00,76.8,59.4,29.99,North,-999,0.0,0.0,55,0.00,,,-99.99,WeatherLink 5.7,2013-07-30 22:39:00,
2013-07-30 18:44:00,76.7,59.8,29.99,North,-999,0.0,0.0,56,0.00,,,-99.99,WeatherLink 5.7,2013-07-30 22:44:00,
2013-07-30 18:50:00,76.5,59.6,29.99,North,-999,0.0,0.0,56,0.00,,,-99.99,WeatherLink 5.7,2013-07-30 22:50:00,
2013-07-30 18:59:00,76.1,61.2,29.99,North,-999,0.0,0.0,60,0.00,,,-99.99,WeatherLink 5.7,2013-07-30 22:59:00,
2013-07-30 19:04:00,76.0,61.1,30.00,North,-999,0.0,0.0,60,0.00,,,-99.99,WeatherLink 5.7,2013-07-30 23:04:00,
2013-07-30 19:09:00,75.8,60.9,30.00,North,-999,0.0,0.0,60,0.00,,,-99.99,WeatherLink 5.7,2013-07-30 23:09:00,
2013-07-30 19:19:00,75.4,61.0,30.00,North,-999,0.0,0.0,61,0.00,,,-99.99,WeatherLink 5.7,2013-07-30 23:19:00,
2013-07-30 19:24:00,75.3,61.4,30.00,North,-999,0.0,0.0,62,0.00,,,-99.99,WeatherLink 5.7,2013-07-30 23:24:00,
2013-07-30 19:34:00,74.9,61.0,30.01,North,-999,0.0,0.0,62,0.00,,,-99.99,WeatherLink 5.7,2013-07-30 23:34:00,
2013-07-30 19:44:00,74.4,60.5,30.01,North,-999,0.0,0.0,62,0.00,,,-99.99,WeatherLink 5.7,2013-07-30 23:44:00,
2013-07-30 19:54:00,73.9,61.0,30.01,North,-999,0.0,0.0,64,0.00,,,-99.99,WeatherLink 5.7,2013-07-30 23:54:00,
2013-07-30 20:04:00,73.5,61.9,30.01,North,-999,0.0,0.0,67,0.00,,,-99.99,WeatherLink 5.7,2013-07-31 00:04:00,
2013-07-30 20:09:00,73.3,61.3,30.01,North,-999,0.0,0.0,66,0.00,,,-99.99,WeatherLink 5.7,2013-07-31 00:09:00,
2013-07-30 20:19:00,73.0,61.8,30.02,North,-999,0.0,0.0,68,0.00,,,-99.99,WeatherLink 5.7,2013-07-31 00:19:00,
2013-07-30 20:25:00,72.7,61.9,30.02,North,-999,0.0,0.0,69,0.00,,,-99.99,WeatherLink 5.7,2013-07-31 00:25:00,
2013-07-30 20:34:00,72.1,61.8,30.02,North,-999,0.0,0.0,70,0.00,,,-99.99,WeatherLink 5.7,2013-07-31 00:34:00,
2013-07-30 20:44:00,71.6,61.7,30.02,North,-999,0.0,0.0,71,0.00,,,-99.99,WeatherLink 5.7,2013-07-31 00:44:00,
2013-07-30 20:54:00,71.1,62.4,30.02,North,-999,0.0,0.0,74,0.00,,,-99.99,WeatherLink 5.7,2013-07-31 00:54:00,
2013-07-30 20:59:00,70.9,62.6,30.02,North,-999,0.0,0.0,75,0.00,,,-99.99,WeatherLink 5.7,2013-07-31 00:59:00,
2013-07-30 21:09:00,70.6,63.0,30.03,North,-999,0.0,0.0,77,0.00,,,-99.99,WeatherLink 5.7,2013-07-31 01:09:00,
2013-07-30 21:19:00,70.3,62.4,30.03,North,-999,0.0,0.0,76,0.00,,,-99.99,WeatherLink 5.7,2013-07-31 01:19:00,
2013-07-30 21:29:00,70.1,61.4,30.03,North,-999,0.0,0.0,74,0.00,,,-99.99,WeatherLink 5.7,2013-07-31 01:29:00,
2013-07-30 21:35:00,69.9,61.2,30.03,North,-999,0.0,0.0,74,0.00,,,-99.99,WeatherLink 5.7,2013-07-31 01:35:00,
2013-07-30 21:44:00,69.8,60.4,30.03,North,-999,0.0,0.0,72,0.00,,,-99.99,WeatherLink 5.7,2013-07-31 01:44:00,
2013-07-30 21:54:00,69.4,59.6,30.03,North,-999,0.0,0.0,71,0.00,,,-99.99,WeatherLink 5.7,2013-07-31 01:54:00,
2013-07-30 21:59:00,69.4,59.6,30.03,North,-999,0.0,0.0,71,0.00,,,-99.99,WeatherLink 5.7,2013-07-31 01:59:00,
2013-07-30 22:09:00,69.1,59.7,30.03,North,-999,0.0,0.0,72,0.00,,,-99.99,WeatherLink 5.7,2013-07-31 02:09:00,
2013-07-30 22:14:00,68.9,59.5,30.03,North,-999,0.0,0.0,72,0.00,,,-99.99,WeatherLink 5.7,2013-07-31 02:14:00,
2013-07-30 22:24:00,68.4,60.2,30.03,North,-999,0.0,0.0,75,0.00,,,-99.99,WeatherLink 5.7,2013-07-31 02:24:00,
2013-07-30 22:34:00,67.9,60.1,30.03,North,-999,0.0,0.0,76,0.00,,,-99.99,WeatherLink 5.7,2013-07-31 02:34:00,
2013-07-30 22:39:00,67.8,60.0,30.03,North,-999,0.0,0.0,76,0.00,,,-99.99,WeatherLink 5.7,2013-07-31 02:39:00,
2013-07-30 22:49:00,67.3,59.8,30.04,North,-999,0.0,0.0,77,0.00,,,-99.99,WeatherLink 5.7,2013-07-31 02:49:00,
2013-07-30 22:59:00,66.9,59.5,30.04,North,-999,0.0,0.0,77,0.00,,,-99.99,WeatherLink 5.7,2013-07-31 02:59:00,
2013-07-30 23:09:00,66.6,59.5,30.04,North,-999,0.0,0.0,78,0.00,,,-99.99,WeatherLink 5.7,2013-07-31 03:09:00,
2013-07-30 23:14:00,66.4,59.7,30.04,North,-999,0.0,0.0,79,0.00,,,-99.99,WeatherLink 5.7,2013-07-31 03:14:00,
2013-07-30 23:24:00,66.3,59.9,30.03,North,-999,0.0,0.0,80,0.00,,,-99.99,WeatherLink 5.7,2013-07-31 03:24:00,
2013-07-30 23:34:00,66.1,60.4,30.03,North,-999,0.0,0.0,82,0.00,,,-99.99,WeatherLink 5.7,2013-07-31 03:34:00,
2013-07-30 23:44:00,65.8,60.2,30.03,North,-999,0.0,0.0,82,0.00,,,-99.99,WeatherLink 5.7,2013-07-31 03:44:00,
2013-07-30 23:54:00,65.5,59.9,30.03,North,-999,0.0,0.0,82,0.00,,,-99.99,WeatherLink 5.7,2013-07-31 03:54:00,
2013-07-30 23:59:00,65.3,60.0,30.03,North,-999,0.0,0.0,83,0.00,,,-99.99,WeatherLink 5.7,2013-07-31 03:59:00,